Hourly Data Report for September 30, 2022

DRYDEN REGIONAL
ONTARIO
Current Station Operator: NAVCAN

49°49'39.000" N
92°44'39.000" W
412.70 m
6032125
71527
YHD

Download Data

Hourly Data (September 2022)
Hourly Data Report for September 30, 2022
TIME
LST
Temp Definition
°C
Dew Point Definition
°C
Rel Hum Definition
%
Precip. Amount Definition
mm

Wind Dir Definition
10's deg

Wind Spd Definition
km/h
Visibility Definition
km
Stn Press Definition
kPa
Hmdx Definition


Wind Chill Definition


Weather Definition


00:00 10.5 6.7 77 0.0 20 8 16.1 97.15     LegendNANA
01:00 9.5 6.6 82 0.0 19 11 16.1 97.15     LegendNANA
02:00 9.4 6.7 83 0.0 19 13 16.1 97.16     LegendNANA
03:00 9.1 6.7 85 0.0 19 13 16.1 97.16     LegendNANA
04:00 9.5 6.8 83 0.0 19 9 16.1 97.16     LegendNANA
05:00 8.6 7.0 89 0.0 19 8 16.1 97.17     LegendNANA
06:00 7.7 7.3 97 0.0 7 5 16.1 97.21     LegendNANA
07:00 8.1 6.9 92 0.0 10 4 16.1 97.24     LegendNANA
08:00 9.9 7.8 87 0.0   0 16.1 97.26     LegendNANA
09:00 11.7 7.5 75 0.0 15 5 16.1 97.30     LegendNANA
10:00 15.2 7.8 61 0.0   0 16.1 97.29     LegendNANA
11:00 16.0 7.9 58 0.0 7 8 16.1 97.27     LegendNANA
12:00 17.5 9.0 57 0.0 5 9 16.1 97.26     LegendNANA
13:00 18.4 9.3 55 0.0 7 8 16.1 97.24     LegendNANA
14:00 18.8 10.1 57 0.0 6 11 16.1 97.21     LegendNANA
15:00 18.3 9.8 57 0.0 5 13 16.1 97.21     LegendNANA
16:00 17.6 10.4 63 0.0 5 15 16.1 97.20     LegendNANA
17:00 15.1 10.4 73 0.0 4 18 16.1 97.22     LegendNANA
18:00 12.6 9.6 82 0.0 4 21 16.1 97.29     LegendNANA
19:00 10.2 8.3 88 0.0 4 17 16.1 97.35     LegendNANA
20:00 9.3 7.9 91 0.0 4 24 16.1 97.41     LegendNANA
21:00 9.2 8.0 92 0.0 5 22 16.1 97.47     LegendNANA
22:00 8.8 7.6 92 0.0 6 24 16.1 97.51     LegendNANA
23:00 8.7 7.8 94 0.0 5 18 16.1 97.55     LegendNANA

Notes on Data Quality.

Legend

  • E = Estimated
  • M = Missing
  • NA = Not Available*
  • [empty] = Indicates an unobserved value
Date modified: